Regional Weather Roundup
Issued by NWS

Home | Current Version | Previous Version | Text Only | Print | Product List | Glossary On
Versions: 1 2 3 4 5 6 7 8 9 10 11 12 13 14 15 16 17 18 19 20 21 22 23 24 25 26 27 28 29 30 31 32 33 34 35 36 37 38 39 40 41 42 43 44 45 46 47 48 49 50
000
ASUS43 KLSX 010659
RWRMO

WEATHER SUMMARY FOR MISSOURI
NATIONAL WEATHER SERVICE SPRINGFIELD MO
100 AM CST SUN FEB 01 2015

NOTE: "FAIR" INDICATES FEW OR NO CLOUDS BELOW 12,000 FEET WITH NO
       SIGNIFICANT WEATHER AND/OR OBSTRUCTIONS TO VISIBILITY.
       CURRENT SKY AND/OR WEATHER CONDITIONS ARE NOT AVAILABLE FOR
       CHILLICOTHE AND FARMINGTON.

MOZ001>031-035>038-043-044-053-054-010800-
...NORTHERN AND WESTERN MISSOURI...

CITY           SKY/WX    TMP DP  RH WIND       PRES   REMARKS
KANSAS CTY INT LGT SNOW  33  33 100 SE10      29.82F FOG     WCI  25
KANSAS C DTWN  FLURRIES  34  32  92 SE5       29.83F WCI  30
LEE`S SUMMIT   LGT SNOW  33  32  96 SE7       29.84F FOG     WCI  27
ST JOSEPH      LGT SNOW  32  32 100 SE3       29.83F FOG
CHILLICOTHE      N/A     33  32  96 VRB6      29.88F WCI  28
KIRKSVILLE     SNOW      33  33 100 SE10      29.90F VSB 1/2 WCI  25

$$
MOZ066>068-077>081-088>096-101>105-010800-
...SOUTHWEST MISSOURI...

CITY           SKY/WX    TMP DP  RH WIND       PRES   REMARKS
SPRINGFIELD    LGT RAIN  37  33  85 S21       29.82F FOG     WCI  26
JOPLIN         RAIN      39  38  96 W6        29.85F FOG

$$
MOZ032>034-039>042-045>050-055>058-069>072-010800-
...CENTRAL MISSOURI...

CITY           SKY/WX    TMP DP  RH WIND       PRES   REMARKS
COLUMBIA       LGT RAIN  34  31  88 E7        29.92F WCI  28
JEFFERSON CITY LGT RAIN  35  31  85 E6        29.93F
ROLLA          RAIN      35  30  82 SE10      29.87F WCI  27
SEDALIA        MIX PCPN  34  32  92 E9        29.89F WCI  27
OSAGE BEACH    CLOUDY    36  32  87 SE3       29.87F

$$
MOZ051-052-059>065-010800-
...EAST CENTRAL MISSOURI...

CITY           SKY/WX    TMP DP  RH WIND       PRES   REMARKS
ST LOUIS INTL  LGT RAIN  39  29  67 SE10      29.99F
SPIRIT OF STL  LGT RAIN  37  29  72 CALM      29.97F
ST CHARLES     MIX PCPN  36  30  79 E10       29.98F WCI  28

$$
MOZ072>076-082>087-097>100-106>115-010800-
...SOUTH CENTRAL AND SOUTHEAST MISSOURI...

CITY           SKY/WX    TMP DP  RH WIND       PRES   REMARKS
CAPE GIRARDEAU CLOUDY    40  26  57 SE8       30.01F
FARMINGTON     CLOUDY    37  25  60 S8        29.98F
POPLAR BLUFF   CLOUDY    37  31  78 CALM      29.99F
WEST PLAINS    CLOUDY    39  24  55 S9        29.92F

$$



USA.gov is the U.S. government's official web portal to all federal, state and local government web resources and services.